• In Deutschland
  • Länderverzeichnis
  • Für 7 Tage
  • Wassertemperatur
  • Satellitenkarten
  • Wetterkarte
  • Widgets
  • user-avatar
    Anmelden

    Stündliche Wetter Ali Bajramli

    Heute, 20 August, Sonntag

    Zeit Temperatur Niederschläge Wind Luftdruck Luftfeuchtigkeit
    00:00 +29°C° 0 mm 4 m/S 759 mmHg 36%
    01:00 +29°C° 0 mm 4 m/S 759 mmHg 36%
    02:00 +28°C° 0 mm 3 m/S 759 mmHg 36%
    03:00 +28°C° 0 mm 3 m/S 759 mmHg 36%
    04:00 +28°C° 0 mm 3 m/S 759 mmHg 35%
    05:00 +28°C° 0 mm 2 m/S 759 mmHg 34%
    06:00 +28°C° 0 mm 2 m/S 759 mmHg 33%
    07:00 +30°C° 0 mm 2 m/S 759 mmHg 30%
    08:00 +33°C° 0 mm 3 m/S 759 mmHg 28%
    09:00 +35°C° 0 mm 3 m/S 759 mmHg 26%
    10:00 +36°C° 0 mm 3 m/S 759 mmHg 25%
    11:00 +37°C° 0 mm 4 m/S 758 mmHg 24%
    12:00 +39°C° 0 mm 5 m/S 758 mmHg 24%
    13:00 +39°C° 0 mm 6 m/S 758 mmHg 24%
    14:00 +39°C° 0 mm 6 m/S 757 mmHg 25%
    15:00 +39°C° 0 mm 7 m/S 757 mmHg 26%
    16:00 +38°C° 0 mm 7 m/S 757 mmHg 29%
    17:00 +36°C° 0 mm 7 m/S 757 mmHg 31%
    18:00 +35°C° 0 mm 6 m/S 757 mmHg 34%
    19:00 +34°C° 0 mm 5 m/S 757 mmHg 38%
    20:00 +32°C° 0 mm 5 m/S 757 mmHg 42%
    21:00 +30°C° 0 mm 4 m/S 758 mmHg 46%
    22:00 +30°C° 0 mm 3 m/S 757 mmHg 46%
    23:00 +30°C° 0 mm 3 m/S 757 mmHg 46%

    Morgen, 21 August, Montag

    Zeit Temperatur Niederschläge Wind Luftdruck Luftfeuchtigkeit
    00:00 +29°C° 0 mm 3 m/S 757 mmHg 46%
    01:00 +29°C° 0 mm 3 m/S 757 mmHg 46%
    02:00 +29°C° 0 mm 2 m/S 757 mmHg 46%
    03:00 +28°C° 0 mm 2 m/S 756 mmHg 45%
    04:00 +29°C° 0 mm 2 m/S 756 mmHg 45%
    05:00 +29°C° 0 mm 1 m/S 756 mmHg 45%
    06:00 +29°C° 0 mm 1 m/S 756 mmHg 45%
    07:00 +30°C° 0 mm 1 m/S 756 mmHg 40%
    08:00 +32°C° 0 mm 1 m/S 756 mmHg 36%
    09:00 +34°C° 0 mm 1 m/S 756 mmHg 31%
    10:00 +36°C° 0 mm 2 m/S 756 mmHg 28%
    11:00 +37°C° 0 mm 3 m/S 756 mmHg 26%
    12:00 +38°C° 0 mm 4 m/S 756 mmHg 23%
    13:00 +40°C° 0 mm 5 m/S 755 mmHg 22%
    14:00 +40°C° 0 mm 5 m/S 755 mmHg 21%
    15:00 +41°C° 0 mm 6 m/S 754 mmHg 20%
    16:00 +39°C° 0 mm 6 m/S 754 mmHg 23%
    17:00 +38°C° 0 mm 6 m/S 754 mmHg 25%
    18:00 +36°C° 0 mm 6 m/S 754 mmHg 27%
    19:00 +34°C° 0 mm 5 m/S 754 mmHg 32%
    20:00 +33°C° 0 mm 4 m/S 755 mmHg 36%
    21:00 +31°C° 0 mm 3 m/S 755 mmHg 40%
    22:00 +30°C° 0 mm 3 m/S 755 mmHg 41%
    23:00 +30°C° 0 mm 2 m/S 755 mmHg 41%

    übermorgen, 22 August, Dienstag

    Zeit Temperatur Niederschläge Wind Luftdruck Luftfeuchtigkeit
    00:00 +29°C° 0 mm 2 m/S 754 mmHg 42%
    01:00 +29°C° 0 mm 2 m/S 754 mmHg 42%
    02:00 +29°C° 0 mm 2 m/S 754 mmHg 41%
    03:00 +28°C° 0 mm 2 m/S 754 mmHg 41%
    04:00 +28°C° 0 mm 1 m/S 754 mmHg 41%
    05:00 +29°C° 0 mm 1 m/S 754 mmHg 42%
    06:00 +29°C° 0 mm 1 m/S 754 mmHg 42%
    07:00 +31°C° 0 mm 1 m/S 755 mmHg 38%
    08:00 +32°C° 0 mm 2 m/S 755 mmHg 35%
    09:00 +35°C° 0 mm 2 m/S 755 mmHg 31%
    10:00 +36°C° 0 mm 3 m/S 755 mmHg 29%
    11:00 +37°C° 0 mm 4 m/S 754 mmHg 28%
    12:00 +40°C° 0 mm 5 m/S 754 mmHg 26%
    13:00 +40°C° 0 mm 5 m/S 754 mmHg 25%
    14:00 +40°C° 0 mm 6 m/S 753 mmHg 24%
    15:00 +40°C° 0 mm 7 m/S 753 mmHg 23%
    16:00 +39°C° 0 mm 7 m/S 753 mmHg 26%
    17:00 +36°C° 0 mm 6 m/S 753 mmHg 29%
    18:00 +35°C° 0 mm 6 m/S 753 mmHg 31%
    19:00 +34°C° 0 mm 5 m/S 754 mmHg 35%
    20:00 +32°C° 0 mm 4 m/S 754 mmHg 38%
    21:00 +30°C° 0 mm 3 m/S 754 mmHg 42%
    22:00 +30°C° 0 mm 3 m/S 754 mmHg 41%
    23:00 +30°C° 0 mm 3 m/S 754 mmHg 40%

    23 August, Mittwoch

    Zeit Temperatur Niederschläge Wind Luftdruck Luftfeuchtigkeit
    00:00 +29°C° 0 mm 3 m/S 754 mmHg 40%
    01:00 +29°C° 0 mm 2 m/S 754 mmHg 38%
    02:00 +28°C° 0 mm 2 m/S 754 mmHg 37%
    03:00 +28°C° 0 mm 2 m/S 754 mmHg 36%
    04:00 +28°C° 0 mm 2 m/S 755 mmHg 37%
    05:00 +28°C° 0 mm 2 m/S 755 mmHg 38%
    06:00 +29°C° 0 mm 2 m/S 755 mmHg 39%
    07:00 +31°C° 0 mm 3 m/S 756 mmHg 37%
    08:00 +33°C° 0 mm 4 m/S 756 mmHg 34%
    09:00 +35°C° 0 mm 5 m/S 756 mmHg 32%
    10:00 +36°C° 0 mm 6 m/S 756 mmHg 30%
    11:00 +38°C° 0 mm 6 m/S 756 mmHg 28%
    12:00 +39°C° 0 mm 7 m/S 756 mmHg 26%
    13:00 +39°C° 0 mm 8 m/S 756 mmHg 25%
    14:00 +39°C° 0 mm 8 m/S 755 mmHg 25%
    15:00 +38°C° 0 mm 8 m/S 755 mmHg 24%
    16:00 +36°C° 0 mm 7 m/S 755 mmHg 25%
    17:00 +35°C° 0 mm 7 m/S 756 mmHg 26%
    18:00 +34°C° 0 mm 6 m/S 756 mmHg 27%
    19:00 +33°C° 0 mm 5 m/S 756 mmHg 30%
    20:00 +32°C° 0 mm 4 m/S 756 mmHg 34%
    21:00 +30°C° 0 mm 3 m/S 757 mmHg 37%
    22:00 +30°C° 0 mm 3 m/S 757 mmHg 36%
    23:00 +29°C° 0 mm 3 m/S 757 mmHg 35%

    24 August, Donnerstag

    Zeit Temperatur Niederschläge Wind Luftdruck Luftfeuchtigkeit
    00:00 +29°C° 0 mm 2 m/S 757 mmHg 33%
    01:00 +29°C° 0 mm 2 m/S 757 mmHg 33%
    02:00 +28°C° 0 mm 2 m/S 757 mmHg 32%
    03:00 +28°C° 0 mm 2 m/S 758 mmHg 31%
    04:00 +28°C° 0 mm 2 m/S 758 mmHg 34%
    05:00 +28°C° 0 mm 2 m/S 759 mmHg 36%
    06:00 +28°C° 0 mm 2 m/S 759 mmHg 38%
    07:00 +30°C° 0 mm 2 m/S 759 mmHg 34%
    08:00 +33°C° 0 mm 3 m/S 760 mmHg 31%
    09:00 +35°C° 0 mm 3 m/S 760 mmHg 27%
    10:00 +36°C° 0 mm 4 m/S 760 mmHg 24%
    11:00 +37°C° 0 mm 5 m/S 760 mmHg 22%
    12:00 +39°C° 0 mm 6 m/S 760 mmHg 20%
    13:00 +39°C° 0 mm 7 m/S 759 mmHg 20%
    14:00 +39°C° 0 mm 7 m/S 759 mmHg 21%
    15:00 +38°C° 0 mm 8 m/S 759 mmHg 22%
    16:00 +36°C° 0 mm 7 m/S 759 mmHg 23%
    17:00 +35°C° 0 mm 7 m/S 759 mmHg 25%
    18:00 +34°C° 0 mm 7 m/S 759 mmHg 26%
    19:00 +33°C° 0 mm 6 m/S 759 mmHg 29%
    20:00 +32°C° 0 mm 5 m/S 760 mmHg 32%
    21:00 +29°C° 0 mm 5 m/S 760 mmHg 35%
    22:00 +29°C° 0 mm 4 m/S 760 mmHg 38%
    23:00 +28°C° 0 mm 4 m/S 760 mmHg 40%

    25 August, Freitag

    Zeit Temperatur Niederschläge Wind Luftdruck Luftfeuchtigkeit
    00:00 +28°C° 0 mm 4 m/S 760 mmHg 43%
    01:00 +27°C° 0 mm 4 m/S 760 mmHg 44%
    02:00 +27°C° 0 mm 3 m/S 760 mmHg 45%
    03:00 +26°C° 0 mm 3 m/S 760 mmHg 46%
    04:00 +26°C° 0 mm 3 m/S 760 mmHg 46%
    05:00 +26°C° 0 mm 3 m/S 760 mmHg 45%
    06:00 +26°C° 0 mm 3 m/S 761 mmHg 44%
    07:00 +29°C° 0 mm 3 m/S 761 mmHg 38%
    08:00 +31°C° 0 mm 3 m/S 761 mmHg 32%
    09:00 +34°C° 0 mm 4 m/S 761 mmHg 26%
    10:00 +35°C° 0 mm 4 m/S 761 mmHg 24%
    11:00 +36°C° 0 mm 5 m/S 760 mmHg 21%
    12:00 +39°C° 0 mm 6 m/S 760 mmHg 19%
    13:00 +39°C° 0 mm 7 m/S 760 mmHg 20%
    14:00 +39°C° 0 mm 8 m/S 760 mmHg 21%
    15:00 +39°C° 0 mm 9 m/S 759 mmHg 22%
    16:00 +37°C° 0 mm 9 m/S 759 mmHg 26%
    17:00 +35°C° 0 mm 9 m/S 759 mmHg 29%
    18:00 +34°C° 0 mm 9 m/S 760 mmHg 32%
    19:00 +33°C° 0 mm 9 m/S 760 mmHg 37%
    20:00 +32°C° 0 mm 8 m/S 760 mmHg 42%
    21:00 +31°C° 0 mm 8 m/S 760 mmHg 47%
    22:00 +29°C° 0 mm 7 m/S 760 mmHg 49%
    23:00 +29°C° 0 mm 7 m/S 760 mmHg 51%
    Mehr zeigen